Location: Shell Point
(30.0571°N, 84.2896°W)
Time: 07:17:20
(UTC-04:00)

Meteor 2-19 Rocket - Visible Passes

Search period start: 01 September 2014 00:00
Search period end: 11 September 2014 00:00
Orbit: 937 x 958 km, 82.5° (Epoch: 31 August)

Date Brightness Start Highest point End Pass type
(mag) Time Alt. Az. Time Alt. Az. Time Alt. Az.
01 Sep 4.6 20:50:28 10° N 20:56:27 50° E 21:02:21 10° SSE visible
01 Sep 6.9 22:36:55 10° NW 22:40:43 17° W 22:44:31 10° SW visible
02 Sep 4.4 21:07:19 10° N 21:13:30 84° E 21:19:37 10° S visible
03 Sep 5.0 21:24:26 10° NNW 21:30:28 59° W 21:36:27 10° S visible
04 Sep 6.0 21:41:52 10° NNW 21:47:21 35° W 21:52:48 10° SSW visible
05 Sep 4.8 20:13:57 10° N 20:19:45 42° E 20:25:30 10° SSE visible
05 Sep 6.8 21:59:46 10° NW 22:04:09 21° W 22:08:31 10° SW visible
06 Sep 4.4 20:30:42 10° N 20:36:50 71° E 20:42:55 10° SSE visible
06 Sep 7.3 22:18:56 10° WNW 22:20:52 12° W 22:22:48 10° WSW visible
07 Sep 4.8 20:47:43 10° N 20:53:50 70° W 20:59:54 10° S visible
08 Sep 5.7 21:05:02 10° NNW 21:10:45 42° W 21:16:25 10° SSW visible
09 Sep 6.7 21:22:44 10° NW 21:27:35 25° W 21:32:23 10° SW visible
10 Sep 7.3 21:41:14 10° NW 21:44:19 14° W 21:47:24 10° WSW visible
